Regional Weather Roundup
Issued by NWS

Home | Current Version | Previous Version | Graphics & Text | Print | Product List | Glossary On
Versions: 1 2 3 4 5 6 7 8 9 10 11 12 13 14 15 16 17 18 19 20 21 22 23 24 25 26 27 28 29 30 31 32 33 34 35 36 37 38 39 40 41 42 43 44 45 46 47 48 49 50
000
ASUS44 KMEG 210700
RWRTN
TENNESSEE HOURLY STATE WEATHER ROUNDUP
NATIONAL WEATHER SERVICE MEMPHIS TN
200 AM CDT SUN SEP 21 2014

TNZ002-004-019-021-049-052-054-088>092-210800-
WEST TENNESSEE

CITY           SKY/WX    TMP DP  RH WIND       PRES   REMARKS
MEMPHIS INTL   CLEAR     74  66  76 S6        30.01S
NWS MEMPHIS      N/A     70 N/A N/A MISG        N/A
JACKSON        CLEAR     70  66  87 S7        30.00F
DYERSBURG      CLEAR     72  59  64 CALM      30.00F
UNION CITY     CLEAR     66  66 100 CALM      29.97F
PARIS          CLEAR     66  64  94 SW6       29.99F
LEXINGTON      MOCLDY    64  64 100 CALM      30.00F VSB 1/2
SAVANNAH       CLEAR     66  66 100 CALM      30.02F
$$

TNZ008-025-027-028-033-062-065-066-210800-
NORTH MIDDLE TENNESSEE

CITY           SKY/WX    TMP DP  RH WIND       PRES   REMARKS
NASHVILLE      PTCLDY    66  64  93 S5        29.99F
CLARKSVILLE    CLEAR     70  66  87 SW7       29.97F
COOKEVILLE       N/A     61  61 100 CALM      30.02F VSB 1/2
CROSSVILLE     CLEAR     65  59  81 SW3       30.06F
$$

TNZ061-075-076-078-094-096-097-210800-
SOUTH MIDDLE TENNESSEE

CITY           SKY/WX    TMP DP  RH WIND       PRES   REMARKS
FAYETTEVILLE   CLEAR     64  61  88 SW3       30.04F
WINCHESTER     CLEAR     63  61  94 CALM      30.04F
SHELBYVILLE    CLEAR     63  63 100 E3        30.03F
$$

TNZ017-018-042-046-047-210800-
NORTHEAST TENNESSEE

CITY           SKY/WX    TMP DP  RH WIND       PRES   REMARKS
TRI CITIES     CLEAR     56  53  90 CALM      30.02F
ELIZABETHTON   SUNNY     55  54  94 NE3       30.03F
$$

TNZ012-013-036-069-073-074-210800-
CENTRAL EAST TENNESSEE

CITY           SKY/WX    TMP DP  RH WIND       PRES   REMARKS
KNOXVILLE      CLEAR     65  61  87 S3        30.01S
OAK RIDGE      PTCLDY    65  62  90 CALM      30.03F
GATLINBURG     SUNNY     61  57  88 CALM      30.01F
$$

TNZ083-085-099-210800-
SOUTHEAST TENNESSEE

CITY           SKY/WX    TMP DP  RH WIND       PRES   REMARKS
CHATTANOOGA    CLEAR     66  62  87 CALM      30.03S
$$

SKY/WX REPORTED AS FAIR MEANS FEW OR NO CLOUDS BELOW
12 THOUSAND FEET.



USA.gov is the U.S. government's official web portal to all federal, state and local government web resources and services.